H-2A DEB *, 48551

Orbit data source: Space-Track

H-2A DEB *, 48551 is space debris in SSO originally from a launch on Mon, 29 Oct 2018 UTC launched from the Tanegashima Space Center (TNSTA). Debris objects in space refer to the collection of defunct objects orbiting the Earth. Examples of debris include non-operational satellites, rocket bodies, and fragments generated from explosions, collisions, or faulty payload assembly.

Loading next visibility...
Identifier
48551, 2018-084DF
Orbit
SSO
Country
Flag of JPJP / JPN
Related business
Manufacturer
MHI Tobishima
Mission
Spacecraft
Bus & Motor
Unknown
Mass
Unknown
Launch date (UTC)
2018-10-29 (7 years ago)
Launch vehicle
Unknown
Launch site
Tanegashima Space Center (TNSTA)
Object type
Payload
Rocket body
Debris
Shape & HBR
Unknown shape, 0.1 m
Radar Cross Section
Small (<0.1 m²)

Expand to show TLE details & history
Last TLE update: 15 hours ago

TLE from 15 hours ago
0 H-2A DEB *
1 48551U 18084DF  26107.13347933  .00000717  00000-0  13884-3 0  9995
2 48551  97.9553 339.3064 0028993 191.0566 169.0004 14.65946736273115
Epoch: 2026-04-17T03:12Z
TLE epoch observation values (Epoch: 2026-04-17T03:12:12.614Z)
Latitude
-0.00004°
Longitude
85.9828°
Altitude
697.115 km
Speed
7.497 km/s
True Right ascension
22h 37m 13s
True Declination
0° 00' 00"
Sunlit
Object was in daylight at epoch
Visualization orbit readout
Latitude
Unknown
Longitude
Unknown
Altitude
Unknown
Speed
Unknown
Apparent Right ascension
Unknown
Apparent Declination
Unknown
Sunlit
N/A
Visualization observer readout
Local Sidereal Time
01:23:15
Azimuth
Unknown
Elevation
Unknown
Doppler factor
Unknown
Orbital elements
Apogee altitude
691.537 km
Perigee altitude
650.662 km
Semi-major axis
7,049.237 km
Eccentricity
0.0029
Inclination
97.9553°
RAAN
339.3064°
Arg. of periapsis
191.0566°
True anomaly
169.06357°
Mean anomaly
169.0004°
Eccentric anomaly
169.03201°
Mean motion
3.66716 °/min
Orbital period
98.17 mins
BSTAR
0.00013884
Loading maneuver chart data...
Computing Atmospheric mass density...
Loading historical data...
Loading historical data...
Loading historical data...
Loading historical data...
Loading historical data...
Loading historical data...
Loading historical data...

Documentation

Showing up to 5 results
|